Time,TemperatureF,DewpointF,PressureIn,WindDirection,WindDirectionDegrees,WindSpeedMPH,WindSpeedGustMPH,Humidity,HourlyPrecipIn,Conditions,Clouds,dailyrainin,SoftwareType,DateUTC
2013-03-25 05:14:00,31.8,27.8,29.67,NW,326,1.0,15.0,85,0.00,,,0.00,Wunderground v.1.15,2013-03-25 09:14:00,
2013-03-25 05:15:00,31.9,27.9,29.67,NW,321,1.0,15.0,85,0.00,,,0.00,Wunderground v.1.15,2013-03-25 09:15:00,
2013-03-25 05:25:00,32.5,27.6,29.67,North,354,2.0,15.0,82,0.00,,,0.00,Wunderground v.1.15,2013-03-25 09:25:00,
2013-03-25 05:30:00,32.7,27.5,29.66,NNW,347,2.0,15.0,81,0.00,,,0.00,Wunderground v.1.15,2013-03-25 09:30:00,
2013-03-25 05:35:00,32.8,27.3,29.67,NNW,339,2.0,15.0,80,0.00,,,0.00,Wunderground v.1.15,2013-03-25 09:35:00,
2013-03-25 05:40:00,32.9,27.1,29.66,North,354,2.0,15.0,79,0.00,,,0.00,Wunderground v.1.15,2013-03-25 09:40:00,
2013-03-25 05:50:00,32.9,27.1,29.67,NNW,337,2.0,15.0,79,0.00,,,0.00,Wunderground v.1.15,2013-03-25 09:50:00,
2013-03-25 05:55:00,32.8,27.0,29.67,NNW,340,2.0,15.0,79,0.00,,,0.00,Wunderground v.1.15,2013-03-25 09:55:00,
2013-03-25 06:00:00,32.8,26.7,29.66,North,349,2.0,2.0,78,0.00,,,0.00,Wunderground v.1.15,2013-03-25 10:00:00,
2013-03-25 06:11:00,32.6,26.8,29.66,NW,311,2.0,15.0,79,0.00,,,0.00,Wunderground v.1.15,2013-03-25 10:11:00,
2013-03-25 06:20:00,32.6,26.2,29.66,North,351,3.0,3.0,77,0.00,,,0.00,Wunderground v.1.15,2013-03-25 10:20:00,
2013-03-25 06:30:00,32.6,26.2,29.66,NW,318,2.0,15.0,77,0.00,,,0.00,Wunderground v.1.15,2013-03-25 10:30:00,
2013-03-25 06:40:00,32.6,25.9,29.66,NW,313,2.0,2.0,76,0.00,,,0.00,Wunderground v.1.15,2013-03-25 10:40:00,
2013-03-25 06:50:00,32.5,26.1,29.66,North,5,2.0,15.0,77,0.00,,,0.00,Wunderground v.1.15,2013-03-25 10:50:00,
2013-03-25 07:00:00,32.5,26.1,29.67,NW,320,2.0,15.0,77,0.00,,,0.00,Wunderground v.1.15,2013-03-25 11:00:00,
2013-03-25 07:05:00,32.6,25.9,29.67,NNW,330,2.0,15.0,76,0.00,,,0.00,Wunderground v.1.15,2013-03-25 11:05:00,
2013-03-25 07:10:00,32.7,26.3,29.67,NNW,331,3.0,3.0,77,0.00,,,0.00,Wunderground v.1.15,2013-03-25 11:10:00,
2013-03-25 07:20:00,32.9,26.2,29.67,North,6,3.0,15.0,76,0.00,,,0.00,Wunderground v.1.15,2013-03-25 11:20:00,
2013-03-25 07:25:00,33.0,26.3,29.67,North,1,3.0,15.0,76,0.00,,,0.00,Wunderground v.1.15,2013-03-25 11:25:00,
2013-03-25 07:35:00,33.2,26.5,29.67,North,354,3.0,15.0,76,0.00,,,0.00,Wunderground v.1.15,2013-03-25 11:35:00,
2013-03-25 07:40:00,33.3,26.5,29.67,NNW,347,3.0,3.0,76,0.00,,,0.00,Wunderground v.1.15,2013-03-25 11:40:00,
2013-03-25 07:45:00,33.4,26.3,29.67,NNW,341,3.0,15.0,75,0.00,,,0.00,Wunderground v.1.15,2013-03-25 11:45:00,
2013-03-25 07:55:00,33.7,26.6,29.66,North,10,4.0,15.0,75,0.00,,,0.00,Wunderground v.1.15,2013-03-25 11:55:00,
2013-03-25 08:05:00,34.2,27.1,29.66,WNW,300,3.0,15.0,75,0.00,,,0.00,Wunderground v.1.15,2013-03-25 12:05:00,
2013-03-25 08:11:00,34.4,27.0,29.66,North,11,3.0,15.0,74,0.00,,,0.00,Wunderground v.1.15,2013-03-25 12:11:00,
2013-03-25 08:20:00,35.0,27.2,29.65,NNW,336,3.0,15.0,73,0.00,,,0.00,Wunderground v.1.15,2013-03-25 12:20:00,
2013-03-25 08:25:00,35.3,27.2,29.65,NNE,25,4.0,4.0,72,0.00,,,0.00,Wunderground v.1.15,2013-03-25 12:25:00,
2013-03-25 08:35:00,35.7,27.2,29.65,NNE,18,4.0,4.0,71,0.00,,,0.00,Wunderground v.1.15,2013-03-25 12:35:00,
2013-03-25 08:40:00,35.8,27.3,29.65,North,4,5.0,7.0,71,0.00,,,0.00,Wunderground v.1.15,2013-03-25 12:40:00,
2013-03-25 08:50:00,36.0,27.8,29.64,NE,34,5.0,15.0,72,0.00,,,0.00,Wunderground v.1.15,2013-03-25 12:50:00,
2013-03-25 08:55:00,36.2,28.0,29.64,North,351,6.0,6.0,72,0.00,,,0.00,Wunderground v.1.15,2013-03-25 12:55:00,
2013-03-25 09:05:00,36.5,29.0,29.63,NNE,26,4.0,15.0,74,0.00,,,0.00,Wunderground v.1.15,2013-03-25 13:05:00,
2013-03-25 09:11:00,36.6,28.8,29.63,North,6,4.0,4.0,73,0.00,,,0.00,Wunderground v.1.15,2013-03-25 13:11:00,
2013-03-25 09:20:00,37.0,29.1,29.62,NNW,345,5.0,5.0,73,0.00,,,0.00,Wunderground v.1.15,2013-03-25 13:20:00,
2013-03-25 09:25:00,37.0,28.8,29.63,NNE,27,6.0,8.0,72,0.00,,,0.00,Wunderground v.1.15,2013-03-25 13:25:00,
2013-03-25 09:35:00,37.2,29.3,29.63,North,360,7.0,7.0,73,0.00,,,0.00,Wunderground v.1.15,2013-03-25 13:35:00,
2013-03-25 09:45:00,37.5,29.6,29.63,NNE,18,6.0,15.0,73,0.00,,,0.00,Wunderground v.1.15,2013-03-25 13:45:00,
2013-03-25 10:00:00,38.0,30.1,29.63,NNE,20,7.0,15.0,73,0.00,,,0.00,Wunderground v.1.15,2013-03-25 14:00:00,
2013-03-25 10:11:00,38.3,30.7,29.63,East,98,6.0,6.0,74,0.00,,,0.00,Wunderground v.1.15,2013-03-25 14:11:00,
2013-03-25 10:20:00,38.7,30.4,29.63,NNE,23,5.0,15.0,72,0.00,,,0.00,Wunderground v.1.15,2013-03-25 14:20:00,
2013-03-25 10:25:00,38.9,30.3,29.62,ENE,60,5.0,15.0,71,0.00,,,0.00,Wunderground v.1.15,2013-03-25 14:25:00,
2013-03-25 10:35:00,39.5,30.5,29.62,NE,45,6.0,11.0,70,0.00,,,0.00,Wunderground v.1.15,2013-03-25 14:35:00,
2013-03-25 10:45:00,39.9,30.5,29.62,NNE,30,7.0,15.0,69,0.00,,,0.00,Wunderground v.1.15,2013-03-25 14:45:00,
2013-03-25 10:50:00,40.8,31.1,29.62,ENE,78,6.0,6.0,68,0.00,,,0.00,Wunderground v.1.15,2013-03-25 14:50:00,
2013-03-25 11:00:00,41.7,30.0,29.61,NNE,20,5.0,15.0,63,0.00,,,0.00,Wunderground v.1.15,2013-03-25 15:00:00,
2013-03-25 11:11:00,41.8,29.3,29.61,North,351,9.0,9.0,61,0.00,,,0.00,Wunderground v.1.15,2013-03-25 15:11:00,
2013-03-25 11:20:00,42.0,29.9,29.60,NE,56,7.0,7.0,62,0.00,,,0.00,Wunderground v.1.15,2013-03-25 15:20:00,
2013-03-25 11:30:00,42.0,29.1,29.59,North,3,7.0,15.0,60,0.00,,,0.00,Wunderground v.1.15,2013-03-25 15:30:00,
2013-03-25 11:40:00,41.9,29.0,29.59,ENE,64,8.0,15.0,60,0.00,,,0.00,Wunderground v.1.15,2013-03-25 15:40:00,
2013-03-25 11:50:00,41.8,28.9,29.58,East,83,7.0,7.0,60,0.00,,,0.00,Wunderground v.1.15,2013-03-25 15:50:00,
2013-03-25 12:00:00,42.0,28.7,29.57,ENE,59,9.0,9.0,59,0.00,,,0.00,Wunderground v.1.15,2013-03-25 16:00:00,
2013-03-25 12:11:00,42.2,28.9,29.57,NE,41,7.0,15.0,59,0.00,,,0.00,Wunderground v.1.15,2013-03-25 16:11:00,
2013-03-25 12:20:00,42.3,29.0,29.56,NE,41,7.0,7.0,59,0.00,,,0.00,Wunderground v.1.15,2013-03-25 16:20:00,
2013-03-25 12:25:00,42.3,28.6,29.57,North,358,6.0,12.0,58,0.00,,,0.00,Wunderground v.1.15,2013-03-25 16:25:00,
2013-03-25 12:35:00,42.2,29.7,29.56,NNE,20,7.0,15.0,61,0.00,,,0.00,Wunderground v.1.15,2013-03-25 16:35:00,
2013-03-25 12:45:00,41.9,29.4,29.56,North,1,6.0,15.0,61,0.00,,,0.00,Wunderground v.1.15,2013-03-25 16:45:00,
2013-03-25 12:55:00,41.7,29.2,29.56,NNE,22,7.0,15.0,61,0.00,,,0.00,Wunderground v.1.15,2013-03-25 16:55:00,
2013-03-25 13:05:00,41.8,29.7,29.55,NNE,23,6.0,15.0,62,0.00,,,0.00,Wunderground v.1.15,2013-03-25 17:05:00,
2013-03-25 13:15:00,41.9,29.8,29.55,North,7,6.0,7.0,62,0.00,,,0.00,Wunderground v.1.15,2013-03-25 17:15:00,
2013-03-25 13:25:00,41.9,29.8,29.55,ENE,67,7.0,7.0,62,0.00,,,0.00,Wunderground v.1.15,2013-03-25 17:25:00,
2013-03-25 13:35:00,42.0,29.9,29.54,NE,38,7.0,7.0,62,0.00,,,0.00,Wunderground v.1.15,2013-03-25 17:35:00,
2013-03-25 13:40:00,42.1,30.0,29.53,NE,36,8.0,8.0,62,0.00,,,0.00,Wunderground v.1.15,2013-03-25 17:40:00,
2013-03-25 13:50:00,42.4,29.5,29.52,NE,35,6.0,8.0,60,0.00,,,0.00,Wunderground v.1.15,2013-03-25 17:50:00,
2013-03-25 14:00:00,42.3,29.4,29.51,NE,35,8.0,8.0,60,0.00,,,0.00,Wunderground v.1.15,2013-03-25 18:00:00,
2013-03-25 14:11:00,42.3,29.8,29.50,North,7,7.0,15.0,61,0.00,,,0.00,Wunderground v.1.15,2013-03-25 18:11:00,
2013-03-25 14:20:00,42.4,29.5,29.49,North,11,9.0,9.0,60,0.00,,,0.00,Wunderground v.1.15,2013-03-25 18:20:00,
2013-03-25 14:30:00,42.6,29.3,29.48,NNE,13,7.0,15.0,59,0.00,,,0.00,Wunderground v.1.15,2013-03-25 18:30:00,
2013-03-25 14:40:00,42.7,28.9,29.47,North,354,7.0,15.0,58,0.00,,,0.00,Wunderground v.1.15,2013-03-25 18:40:00,
2013-03-25 14:50:00,42.6,28.0,29.47,NE,51,9.0,15.0,56,0.00,,,0.00,Wunderground v.1.15,2013-03-25 18:50:00,
2013-03-25 15:00:00,42.9,26.9,29.46,NNE,15,8.0,8.0,53,0.00,,,0.00,Wunderground v.1.15,2013-03-25 19:00:00,
2013-03-25 15:11:00,43.2,27.2,29.44,North,354,9.0,15.0,53,0.00,,,0.00,Wunderground v.1.15,2013-03-25 19:11:00,
2013-03-25 15:20:00,43.5,28.8,29.44,NNE,26,10.0,15.0,56,0.00,,,0.00,Wunderground v.1.15,2013-03-25 19:20:00,
2013-03-25 15:30:00,43.2,26.7,29.45,NE,45,9.0,9.0,52,0.00,,,0.00,Wunderground v.1.15,2013-03-25 19:30:00,
2013-03-25 15:40:00,43.2,29.4,29.45,North,11,7.0,15.0,58,0.00,,,0.00,Wunderground v.1.15,2013-03-25 19:40:00,
2013-03-25 15:45:00,43.3,26.8,29.45,East,89,7.0,15.0,52,0.00,,,0.00,Wunderground v.1.15,2013-03-25 19:45:00,
2013-03-25 15:55:00,43.3,25.9,29.45,NNE,18,10.0,15.0,50,0.00,,,0.00,Wunderground v.1.15,2013-03-25 19:55:00,
2013-03-25 16:05:00,43.3,26.8,29.45,West,272,7.0,18.0,52,0.00,,,0.00,Wunderground v.1.15,2013-03-25 20:05:00,
2013-03-25 16:15:00,42.9,28.7,29.45,North,349,8.0,8.0,57,0.00,,,0.00,Wunderground v.1.15,2013-03-25 20:15:00,
2013-03-25 16:25:00,42.5,29.2,29.44,North,3,7.0,15.0,59,0.00,,,0.00,Wunderground v.1.15,2013-03-25 20:25:00,
2013-03-25 16:35:00,42.4,26.5,29.45,NE,36,9.0,15.0,53,0.00,,,0.00,Wunderground v.1.15,2013-03-25 20:35:00,
2013-03-25 16:45:00,42.2,28.0,29.45,North,3,8.0,15.0,57,0.00,,,0.00,Wunderground v.1.15,2013-03-25 20:45:00,
2013-03-25 16:55:00,41.9,29.0,29.45,NNW,331,6.0,6.0,60,0.00,,,0.00,Wunderground v.1.15,2013-03-25 20:55:00,
2013-03-25 17:07:00,41.5,28.2,29.46,NNE,19,8.0,8.0,59,0.00,,,0.00,Wunderground v.1.15,2013-03-25 21:07:00,
2013-03-25 17:14:00,41.3,28.4,29.45,NW,309,10.0,15.0,60,0.00,,,0.00,Wunderground v.1.15,2013-03-25 21:14:00,
2013-03-25 17:20:00,41.1,28.7,29.46,NNE,32,10.0,15.0,61,0.00,,,0.00,Wunderground v.1.15,2013-03-25 21:20:00,
2013-03-25 17:35:00,40.9,28.5,29.46,NE,56,8.0,15.0,61,0.00,,,0.00,Wunderground v.1.15,2013-03-25 21:35:00,
2013-03-25 17:45:00,40.7,29.1,29.46,NNE,18,8.0,15.0,63,0.00,,,0.00,Wunderground v.1.15,2013-03-25 21:45:00,
2013-03-25 17:55:00,40.6,29.0,29.46,North,356,8.0,8.0,63,0.00,,,0.00,Wunderground v.1.15,2013-03-25 21:55:00,
2013-03-25 18:05:00,40.4,28.8,29.46,NNE,30,8.0,15.0,63,0.00,,,0.00,Wunderground v.1.15,2013-03-25 22:05:00,
2013-03-25 18:10:00,40.3,28.7,29.47,NE,46,8.0,15.0,63,0.00,,,0.00,Wunderground v.1.15,2013-03-25 22:10:00,
2013-03-25 18:20:00,40.2,29.4,29.47,NNE,18,8.0,15.0,65,0.00,,,0.00,Wunderground v.1.15,2013-03-25 22:20:00,
2013-03-25 18:30:00,39.9,29.5,29.47,WNW,296,9.0,9.0,66,0.00,,,0.00,Wunderground v.1.15,2013-03-25 22:30:00,
2013-03-25 18:40:00,39.7,29.6,29.48,NE,49,6.0,15.0,67,0.00,,,0.00,Wunderground v.1.15,2013-03-25 22:40:00,
2013-03-25 18:45:00,39.6,29.5,29.48,NNE,16,7.0,15.0,67,0.00,,,0.00,Wunderground v.1.15,2013-03-25 22:45:00,
2013-03-25 18:55:00,39.3,29.6,29.48,NNE,25,6.0,15.0,68,0.00,,,0.00,Wunderground v.1.15,2013-03-25 22:55:00,
2013-03-25 19:05:00,39.2,29.9,29.49,NW,318,5.0,15.0,69,0.00,,,0.00,Wunderground v.1.15,2013-03-25 23:05:00,
2013-03-25 19:15:00,38.9,29.6,29.49,NNW,328,7.0,7.0,69,0.00,,,0.00,Wunderground v.1.15,2013-03-25 23:15:00,
2013-03-25 19:25:00,38.8,28.8,29.49,NNE,19,8.0,15.0,67,0.00,,,0.00,Wunderground v.1.15,2013-03-25 23:25:00,
2013-03-25 19:35:00,38.7,28.7,29.50,NNE,23,7.0,7.0,67,0.00,,,0.00,Wunderground v.1.15,2013-03-25 23:35:00,
2013-03-25 19:45:00,38.5,29.6,29.50,NW,306,8.0,15.0,70,0.00,,,0.00,Wunderground v.1.15,2013-03-25 23:45:00,
2013-03-25 19:55:00,37.8,29.9,29.51,NNE,25,8.0,8.0,73,0.00,,,0.00,Wunderground v.1.15,2013-03-25 23:55:00,
2013-03-25 20:00:00,37.2,31.0,29.51,NNW,335,7.0,7.0,78,0.00,,,0.00,Wunderground v.1.15,2013-03-26 00:00:00,
2013-03-25 20:11:00,36.5,31.2,29.50,North,349,3.0,15.0,81,0.00,,,0.00,Wunderground v.1.15,2013-03-26 00:11:00,
2013-03-25 20:20:00,36.4,31.1,29.50,NW,306,3.0,3.0,81,0.00,,,0.00,Wunderground v.1.15,2013-03-26 00:20:00,
2013-03-25 20:30:00,36.6,31.3,29.51,North,355,2.0,15.0,81,0.00,,,0.00,Wunderground v.1.15,2013-03-26 00:30:00,
2013-03-25 20:35:00,36.8,30.9,29.51,NNW,337,4.0,15.0,79,0.00,,,0.00,Wunderground v.1.15,2013-03-26 00:35:00,
2013-03-25 20:45:00,36.9,31.3,29.52,NW,323,6.0,15.0,80,0.00,,,0.00,Wunderground v.1.15,2013-03-26 00:45:00,
2013-03-25 20:55:00,35.5,31.7,29.52,NNE,19,7.0,15.0,86,0.00,,,0.00,Wunderground v.1.15,2013-03-26 00:55:00,
2013-03-25 21:05:00,34.8,31.9,29.52,NNE,25,4.0,15.0,89,0.00,,,0.00,Wunderground v.1.15,2013-03-26 01:05:00,
2013-03-25 21:15:00,34.8,32.2,29.52,North,5,3.0,15.0,90,0.00,,,0.00,Wunderground v.1.15,2013-03-26 01:15:00,
2013-03-25 21:25:00,35.0,32.1,29.52,NW,326,3.0,3.0,89,0.00,,,0.00,Wunderground v.1.15,2013-03-26 01:25:00,
2013-03-25 21:35:00,35.3,31.8,29.51,NNW,328,2.0,15.0,87,0.00,,,0.00,Wunderground v.1.15,2013-03-26 01:35:00,
2013-03-25 21:40:00,35.7,31.3,29.51,North,355,3.0,15.0,84,0.00,,,0.00,Wunderground v.1.15,2013-03-26 01:40:00,
2013-03-25 21:50:00,36.6,30.7,29.52,NW,320,5.0,15.0,79,0.00,,,0.00,Wunderground v.1.15,2013-03-26 01:50:00,
2013-03-25 22:00:00,37.1,30.6,29.52,NNW,332,6.0,6.0,77,0.00,,,0.00,Wunderground v.1.15,2013-03-26 02:00:00,
2013-03-25 22:15:00,37.3,30.1,29.52,NNW,337,5.0,15.0,75,0.00,,,0.00,Wunderground v.1.15,2013-03-26 02:15:00,
2013-03-25 22:25:00,37.4,29.9,29.52,NNW,329,7.0,15.0,74,0.00,,,0.00,Wunderground v.1.15,2013-03-26 02:25:00,
2013-03-25 22:35:00,37.3,29.1,29.52,NW,312,6.0,15.0,72,0.00,,,0.00,Wunderground v.1.15,2013-03-26 02:35:00,
2013-03-25 22:45:00,37.3,29.1,29.52,North,349,6.0,15.0,72,0.00,,,0.00,Wunderground v.1.15,2013-03-26 02:45:00,
2013-03-25 22:55:00,37.3,28.8,29.52,North,6,7.0,15.0,71,0.00,,,0.00,Wunderground v.1.15,2013-03-26 02:55:00,
2013-03-25 23:00:00,37.3,29.1,29.52,NNW,343,6.0,6.0,72,0.00,,,0.00,Wunderground v.1.15,2013-03-26 03:00:00,
2013-03-25 23:15:00,37.2,29.0,29.52,North,355,6.0,6.0,72,0.00,,,0.00,Wunderground v.1.15,2013-03-26 03:15:00,
2013-03-25 23:25:00,37.2,29.0,29.52,NW,313,4.0,15.0,72,0.00,,,0.00,Wunderground v.1.15,2013-03-26 03:25:00,
2013-03-25 23:35:00,37.2,29.0,29.52,North,349,5.0,15.0,72,0.00,,,0.00,Wunderground v.1.15,2013-03-26 03:35:00,
2013-03-25 23:45:00,37.1,29.2,29.52,NW,305,5.0,15.0,73,0.00,,,0.00,Wunderground v.1.15,2013-03-26 03:45:00,
2013-03-25 23:55:00,37.1,28.9,29.53,NNW,343,5.0,15.0,72,0.00,,,0.00,Wunderground v.1.15,2013-03-26 03:55:00,